Burns, OR

11:55 AM PST on February 27, 2017 (GMT -0800)
Burns Municipal

Weather History for KBNO - July, 2013

Change the Weather History Date:

Saturday, July 6, 2013

  Actual Average Record
Temperature  
Mean Temperature 64 °F 65 °F  
Max Temperature 89 °F 83 °F 97 °F (2007)
Min Temperature 38 °F 46 °F 30 °F (1986)
Degree Days  
Heating Degree Days 1 3  
Month to date heating degree days 1 19  
Since 1 June heating degree days 189 237  
Since 1 July heating degree days 1 19  
Cooling Degree Days 0 2  
Month to date cooling degree days 67 12  
Year to date cooling degree days 122 35  
Since 1 June cooling degree days 121 32  
Growing Degree Days 13 (Base 50)    
Moisture  
Dew Point 31 °F    
Average Humidity 37    
Maximum Humidity 62    
Minimum Humidity 11    
Precipitation  
Precipitation 0.00 in 0.01 in 0.23 in (1981)
Month to date precipitation T 0.08  
Year to date precipitation 3.41 6.30  
Sea Level Pressure  
Sea Level Pressure 29.81 in    
Wind  
Wind Speed 8 mph (West)    
Max Wind Speed 17 mph    
Max Gust Speed 23 mph    
Visibility 10 miles    
Events      
T = Trace of Precipitation, MM = Missing Value Source: NWS Daily Summary

Daily Weather History Graph

Daily Weather History Graph

Search for Another Location

Airport or City:

Trip Planner

Search our weather history database for the weather conditions in past years. The results will help you decide how hot, cold, wet, or windy it might be!

Date:

Astronomy

Jul. 06, 2013 Rise Set
Actual Time 5:21 AM PDT 8:39 PM PDT
Civil Twilight 4:46 AM PDT 9:14 PM PDT
Nautical Twilight 4:00 AM PDT 10:00 PM PDT
Astronomical Twilight 3:03 AM PDT 10:56 PM PDT
Moon 4:13 AM PDT (7/6) 7:22 PM PDT (7/6)
Length of Visible Light 16h 28m
Length of Day
15h 17m
Waning Crescent, 2% of the Moon is Illuminated
Jul 6
Waning Crescent
Jul 8
New
Jul 15
First Quarter
Jul 22
Full
Jul 29
Last Quarter

Hourly Weather History & Observations

Time (PDT) Temp. Windchill Dew Point Humidity Pressure Visibility Wind Dir Wind Speed Gust Speed Precip Events Conditions
12:53 AM 48.9 °F - 30.9 °F 50% 29.86 in 10.0 mi WSW 8.1 mph - N/A   Clear
1:53 AM 51.1 °F - 32.0 °F 48% 29.85 in 10.0 mi WSW 5.8 mph - N/A   Clear
2:53 AM 45.0 °F 42.6 °F 30.9 °F 58% 29.86 in 10.0 mi West 4.6 mph - N/A   Clear
3:53 AM 45.0 °F 39.7 °F 32.0 °F 60% 29.86 in 10.0 mi West 10.4 mph - 0.00 in   Clear
4:53 AM 43.0 °F 41.3 °F 30.9 °F 62% 29.87 in 10.0 mi West 3.5 mph - N/A   Clear
5:53 AM 46.0 °F 41.0 °F 33.1 °F 61% 29.87 in 10.0 mi West 10.4 mph - N/A   Clear
6:53 AM 54.0 °F - 35.1 °F 49% 29.86 in 10.0 mi Calm Calm - N/A   Clear
7:53 AM 62.1 °F - 35.1 °F 37% 29.85 in 10.0 mi NE 4.6 mph - N/A   Clear
8:53 AM 66.9 °F - 35.1 °F 31% 29.86 in 10.0 mi Variable 3.5 mph - N/A   Clear
9:53 AM 72.0 °F - 30.0 °F 21% 29.84 in 10.0 mi WSW 5.8 mph - N/A   Clear
10:53 AM 75.9 °F - 27.0 °F 16% 29.84 in 10.0 mi WSW 6.9 mph - N/A   Clear
11:53 AM 77.0 °F - 33.1 °F 20% 29.84 in 10.0 mi South 6.9 mph - N/A   Mostly Cloudy
12:53 PM 81.0 °F - 30.9 °F 16% 29.83 in 10.0 mi SSE 4.6 mph - N/A   Partly Cloudy
1:53 PM 84.0 °F - 30.0 °F 14% 29.79 in 10.0 mi SE 6.9 mph - N/A   Clear
2:53 PM 88.0 °F - 26.1 °F 11% 29.78 in 10.0 mi South 11.5 mph 17.3 mph N/A   Partly Cloudy
3:53 PM 88.0 °F - 30.9 °F 13% 29.76 in 10.0 mi SW 12.7 mph - N/A   Clear
4:53 PM 88.0 °F - 33.1 °F 14% 29.75 in 10.0 mi Variable 6.9 mph - N/A   Clear
5:53 PM 88.0 °F - 32.0 °F 14% 29.73 in 10.0 mi SSW 8.1 mph - N/A   Clear
6:53 PM 87.1 °F - 32.0 °F 14% 29.70 in 10.0 mi WNW 10.4 mph 16.1 mph N/A   Clear
7:53 PM 80.1 °F - 28.0 °F 15% 29.71 in 10.0 mi NNW 13.8 mph - N/A   Clear
8:53 PM 75.9 °F - 27.0 °F 16% 29.73 in 10.0 mi NW 12.7 mph 20.7 mph N/A   Clear
9:53 PM 73.0 °F - 27.0 °F 18% 29.74 in 10.0 mi NW 13.8 mph - N/A   Clear
10:53 PM 69.1 °F - 28.0 °F 22% 29.76 in 10.0 mi North 4.6 mph - N/A   Clear
11:53 PM 62.1 °F - 30.9 °F 31% 29.79 in 10.0 mi West 6.9 mph - N/A   Clear